Content
SEND FEEDBACK

Daily
Averages
Monthly
Summary
United States of America

RAPID CITY, SOUTH DAKOTA


Home > North America > United States > South Dakota
Elevation: 3162 feet     Latitude: 44 03N     Longitude: 103 04W

WEATHER
 
SELECT A DAY
Number of Records: 204,958;   Date Range: 1/1/95 - 12/17/14
 
SHARE

PRINT THIS DATA

[ ← Previous Day ]
WEATHER ALMANAC - AUGUST 27, 2014
[ Next Day → ]
[ °C ]   °F
Weather ElementAverageHighLow
Temperature65.6 °F73.9 °F (7:52 pm)55 °F (6:52 am)
Dewpoint58.7 °F62.6 °F (11:49 am)53.1 °F (5:52 am)
Humidity79.3 %94 % (9:27 am)64 % (12:52 pm)
Barometer30.08 in30.16 in (5:52 am)29.99 in (11:52 am)
Wind Speed5.9 mph11.5 mph (8:52 am)
Weather ElementAverage
Visibility9.9 mi
Wind DirectionSSE (142.2 °)

Weather ElementTotal
Precipitation0.06 in
Heating Degree Days0.5 (Base 65)
Growing Degree Days14.5 (Base 50)
Averaged from 27 records on August 27, 2014
WEATHER CONDITIONS BREAKOUT
WIND DIRECTION BREAKOUT
WEATHER BY HOUR - AUGUST 27, 2014
[ °C ]   °F
Local TimeTemperatureDewpointHumidityBarometerVisibilityWind DirectionWind SpeedGust SpeedPrecipitationEventsConditions
12:52 AM60.1 °F54.0 °F80 %30.11 in10.0 miNorth (360°)4.6 mphClear
1:52 AM59.0 °F53.1 °F81 %30.11 in10.0 miEast (90°)4.6 mphClear
2:52 AM55.4 °F53.6 °F94 %30.16 in10.0 miENE (70°)4.6 mphClear
3:52 AM57.9 °F54.0 °F87 %30.09 in10.0 miNNE (20°)3.5 mphMostly Cloudy
4:52 AM57.9 °F54.0 °F87 %30.08 in10.0 miNNW (330°)3.5 mphPartly Cloudy
5:52 AM57.2 °F53.6 °F88 %30.14 in10.0 miNNW (340°)6.9 mphPartly Cloudy
6:52 AM55.0 °F53.1 °F93 %30.12 in10.0 miEast (100°)4.6 mphClear
7:52 AM57.0 °F54.0 °F89 %30.13 in10.0 miEast (90°)4.6 mphClear
8:52 AM64.0 °F55.0 °F73 %30.11 in10.0 miNorth (10°)8.1 mphClear
9:52 AM68.0 °F57.9 °F70 %30.09 in10.0 miNorth (360°)11.5 mphClear
10:52 AM70.0 °F60.1 °F71 %30.09 in10.0 miNE (40°)11.5 mphClear
11:52 AM71.1 °F60.1 °F68 %30.09 in10.0 miNE (40°)4.6 mphPartly Cloudy
12:52 PM73.4 °F60.8 °F65 %30.11 in10.0 miESE (110°)5.8 mphMostly Cloudy
1:31 PM73.9 °F61.0 °F64 %30.11 in10.0 miCalmOvercast
1:44 PM73.0 °F61.0 °F66 %30.10 in10.0 miVariable3.5 mphOvercast
1:52 PM73.0 °F61.0 °F66 %30.05 in10.0 miCalmOvercast
2:33 PM73.0 °F61.0 °F66 %30.10 in10.0 miSE (140°)10.4 mphMostly Cloudy
2:52 PM73.4 °F62.6 °F69 %30.09 in10.0 miSE (140°)9.2 mphOvercast
3:52 PM73.4 °F60.8 °F65 %30.07 in10.0 miSouth (170°)3.5 mphScattered Clouds
4:52 PM71.1 °F62.1 °F73 %30.01 in10.0 miSSE (150°)8.1 mphScattered Clouds
5:52 PM69.1 °F62.1 °F78 %30.02 in10.0 miSSE (150°)5.8 mphPartly Cloudy
6:52 PM66.9 °F62.1 °F84 %30.03 in10.0 miSE (130°)10.4 mphOvercast
7:52 PM64.0 °F62.1 °F93 %30.05 in9.0 miESE (120°)6.9 mph0.00 inRainLight Rain
8:52 PM63.0 °F61.0 °F93 %30.04 in9.0 miSW (230°)3.5 mph0.05 inRainLight Rain
9:52 PM63.0 °F61.0 °F93 %30.01 in10.0 miNW (310°)5.8 mph0.01 inMostly Cloudy
10:52 PM64.0 °F62.1 °F93 %29.99 in10.0 miNNW (330°)6.9 mphOvercast
11:52 PM64.0 °F62.1 °F93 %29.99 in10.0 miNorth (10°)5.8 mph0.00 inOvercast
Hourly data recorded from KRAP, located miles away from Rapid City, South Dakota







STORIES FROM OUR PARTNERS